Regional Weather Roundup
Issued by NWS

Home | Current Version | Previous Version | Text Only | Print | Product List | Glossary On
Versions: 1 2 3 4 5 6 7 8 9 10 11 12 13 14 15 16 17 18 19 20 21 22 23 24 25 26 27 28 29 30 31 32 33 34 35 36 37 38 39 40 41 42 43 44 45 46 47 48 49 50
000
ASUS43 KOAX 261702
RWRNE

WEATHER ROUNDUP FOR NEBRASKA
NATIONAL WEATHER SERVICE OMAHA NE
1200 PM CDT TUE SEP 26 2017

NOTES: SATELLITE DATA IS BEING USED TO AUGMENT CLOUD COVER ABOVE
       12000 FEET.
       "FAIR" INDICATES FEW OR NO CLOUDS BELOW 12,000 FEET WITH NO
       SIGNIFICANT WEATHER AND/OR OBSTRUCTIONS TO VISIBILITY.


NEZ001>004-019>022-054>056-261800-
NEBRASKA PANHANDLE

CITY           SKY/WX    TMP DP  RH WIND       PRES   REMARKS
SCOTTSBLUFF    SUNNY     54  43  66 W8        30.20S
ALLIANCE       SUNNY     57  42  57 NW3       30.18S
CHADRON        SUNNY     59  42  53 W7        30.18R
GORDON         FAIR      57  43  59 W7        30.16F
KIMBALL        SUNNY     56  39  52 NW6       30.22R
SIDNEY         SUNNY     59  40  49 NW6       30.21R
$$

NEZ057>060-069>072-079>082-261800-
SOUTHWEST NEBRASKA

CITY           SKY/WX    TMP DP  RH WIND       PRES   REMARKS
NORTH PLATTE   SUNNY     60  44  55 N5        30.19S
IMPERIAL       SUNNY     58  45  62 NW7       30.20S
LEXINGTON      MOSUNNY   56  47  70 NW7       30.19S
MCCOOK         SUNNY     55  47  74 N10       30.19F
OGALLALA       SUNNY     59  46  61 SW3       30.20S
$$

NEZ005>010-023>029-035>040-094-261800-
NORTH CENTRAL NEBRASKA

CITY           SKY/WX    TMP DP  RH WIND       PRES   REMARKS
VALENTINE      SUNNY     61  44  53 VRB3      30.16F
AINSWORTH      SUNNY     56  46  68 NW3       30.18S
BROKEN BOW     SUNNY     57  45  64 N10       30.17S
O`NEILL        CLOUDY    53  47  82 NW7       30.19S
ORD            SUNNY     58  45  62 N8        30.16S
THEDFORD       SUNNY     59  43  55 W5        30.19S
$$

NEZ041-046>049-061>064-073>077-083>087-261800-
SOUTH CENTRAL NEBRASKA

CITY           SKY/WX    TMP DP  RH WIND       PRES   REMARKS
GRAND ISLAND   CLOUDY    54  47  77 N9        30.19S
AURORA         CLOUDY    56  49  78 N10       30.18F
HASTINGS       CLOUDY    53  46  77 N13       30.19S
HEBRON         CLOUDY    56  50  80 N9G17     30.17R
HOLDREGE       CLOUDY    51  46  83 NW5       30.19S
KEARNEY        CLOUDY    53  47  79 N9        30.19S
YORK           CLOUDY    54  50  87 NW10      30.17F
$$

NEZ011>018-030>034-042>045-261800-
NORTHEAST NEBRASKA

CITY           SKY/WX    TMP DP  RH WIND       PRES   REMARKS
NORFOLK        CLOUDY    56  48  74 NW15      30.15R
ALBION         CLOUDY    54  48  80 N8        30.18R
BLAIR          CLOUDY    56  51  84 NW10      30.13S
COLUMBUS       CLOUDY    56  48  74 NW8       30.18R
FREMONT        CLOUDY    56  51  84 NW12      30.15S
TEKAMAH        CLOUDY    57  50  77 N10       30.14R
WAYNE          CLOUDY    56  50  81 NW9       30.15S
$$

NEZ050>053-065>068-078-088>093-261800-
SOUTHEAST NEBRASKA

CITY           SKY/WX    TMP DP  RH WIND       PRES   REMARKS
LINCOLN        PTSUNNY   61  50  67 N13       30.15F
OMAHA EPPLEY   PTSUNNY   59  51  75 N13       30.13R
BEATRICE       CLOUDY    57  52  82 N10G16    30.15R
FALLS CITY     CLOUDY    61  55  81 N8        30.10S
NEBRASKA CITY  CLOUDY    58  55  91 N10G18    30.12F
PLATTSMOUTH    CLOUDY    57  53  84 N10       30.13S
$$

NEZ044-045-051>053-067-261800-
OMAHA AREA

CITY           SKY/WX    TMP DP  RH WIND       PRES   REMARKS
OMAHA EPPLEY   PTSUNNY   59  51  75 N13       30.13R
BLAIR          CLOUDY    56  51  84 NW10      30.13S
FREMONT        CLOUDY    56  51  84 NW12      30.15S
MILLARD        CLOUDY    59  52  77 N8        30.14S
OFFUTT AFB     CLOUDY    59  51  75 N8        30.12S
PLATTSMOUTH    CLOUDY    57  53  84 N10       30.13S
WAHOO          CLOUDY    58  50  75 NW12G17   30.15R
$$




USA.gov is the U.S. government's official web portal to all federal, state and local government web resources and services.